Location: Ferchesar
(52.6477°N, 12.4298°E)
Time: 13:35:47
(UTC+02:00)

Transit 4A - Pass Details

Date: 27 February 2021
Orbit: 869 x 975 km, 66.8° (Epoch: 16 April)

Event Time Altitude Azimuth Distance (km) Brightness Sun altitude
Rises 13:20:10 0° 246° (WSW) 3,661 11.5 28.0°
Reaches altitude 10° 13:22:54 10° 253° (WSW) 2,708 10.9 27.9°
Maximum altitude 13:28:54 43° 324° (NW) 1,322 8.8 27.6°
Drops below altitude 10° 13:34:48 10° 35° (NE) 2,661 9.8 27.3°
Sets 13:37:28 0° 43° (NE) 3,590 10.5 27.2°
